Notices

What's New in latest Release from April 7th, 2021:

- Updated Glossary, including Speed of Maximum Gust, and Total Hourly Precipitation

- Updated national and regional climate services offices contacts and prices information

- Addition of station inventory lists for 1981-2010, 1971-2000, and 1961-1990 Normals.

If you haven't already, please take our survey and provide feedback about our website: https://eccc.sondage-survey.ca/f/LanguageSelection.aspx?s=442ca660-fcf1-47c0-95a9-59707d6fd709

Hourly Data Report for August 13, 2016

TORONTO CITY
ONTARIO

43°40'00.000" N
79°24'00.000" W
112.50 m
6158355
71508
XTO

Download Data

Hourly Data (August 2016)
Hourly Data Report for August 13, 2016
TIME
LST
Temp Definition
°C
Dew Point Definition
°C
Rel Hum Definition
%
Precip. Amount Definition
mm

Wind Dir Definition
10's deg

Wind Spd Definition
km/h
Visibility Definition
km
Stn Press Definition
kPa
Hmdx Definition


Wind Chill Definition


Weather Definition


00:00 26.6 20.2 68 0.0 LegendMM LegendMM   99.72 34   LegendNANA
01:00 26.4 20.1 69 0.0 LegendMM LegendMM   99.71 34   LegendNANA
02:00 23.3 21.3 88 1.8 LegendMM LegendMM   99.67 32   LegendNANA
03:00 23.1 20.3 85 0.0 LegendMM LegendMM   99.64 31   LegendNANA
04:00 23.2 20.6 85 0.0 LegendMM LegendMM   99.65 31   LegendNANA
05:00 23.4 21.0 87 0.0 LegendMM LegendMM   99.66 32   LegendNANA
06:00 24.1 21.7 86 0.0 LegendMM LegendMM   99.64 33   LegendNANA
07:00 24.5 22.1 86 0.0 LegendMM LegendMM   99.66 34   LegendNANA
08:00 25.4 22.9 86 0.0 LegendMM LegendMM   99.62 36   LegendNANA
09:00 26.3 22.6 81 0.0 LegendMM LegendMM   99.60 36   LegendNANA
10:00 26.6 23.3 82 0.0 LegendMM LegendMM   99.57 37   LegendNANA
11:00 29.4 24.1 73 0.0 LegendMM LegendMM   99.46 41   LegendNANA
12:00 28.5 23.5 74 0.0 LegendMM LegendMM   99.36 39   LegendNANA
13:00 23.7 20.7 83 2.9 LegendMM LegendMM   99.47 32   LegendNANA
14:00 23.1 21.6 91 11.1 LegendMM LegendMM   99.42 32   LegendNANA
15:00 24.5 22.9 91 0.7 LegendMM LegendMM   99.35 35   LegendNANA
16:00 26.2 23.3 84 0.8 LegendMM LegendMM   99.31 37   LegendNANA
17:00 26.9 23.0 79 0.0 LegendMM LegendMM   99.30 37   LegendNANA
18:00 27.0 22.9 78 0.3 LegendMM LegendMM   99.35 37   LegendNANA
19:00 25.7 22.3 82 0.2 LegendMM LegendMM   99.42 35   LegendNANA
20:00 23.4 21.5 89 1.3 LegendMM LegendMM   99.41 32   LegendNANA
21:00 22.6 20.3 87 0.0 LegendMM LegendMM   99.50 30   LegendNANA
22:00 23.5 21.1 86 0.0 LegendMM LegendMM   99.51 32   LegendNANA
23:00 23.9 21.4 86 0.0 LegendMM LegendMM   99.55 33   LegendNANA

Notes on Data Quality.

Legend

  • E = Estimated
  • M = Missing
  • NA = Not Available*
  • [empty] = Indicates an unobserved value
Date modified: